This is the latest recevied weather packets stored in our database for station/object HS3NOQ-2. If no packets are shown the sender has not sent any weather packets the latest 1 day(s).
| Time | Temp. | Humidity | Pressure | Rain* | Wind** | Luminosity | Snow |
|---|---|---|---|---|---|---|---|
| 1777983582 | 30° C | 96% | - | - | 0 m/s | - | - |
| 1777982362 | 30° C | 95% | - | - | 0 m/s | - | - |
| 1777981146 | 31.11° C | 95% | - | - | 0 m/s | - | - |
| 1777979930 | 33.33° C | 95% | - | - | 0 m/s | - | - |
| 1777978717 | 32.22° C | 92% | - | - | 0 m/s | - | - |
| 1777977501 | 29.44° C | 91% | - | - | 0 m/s | - | - |
| 1777976285 | 32.22° C | 92% | - | - | 0 m/s | - | - |
| 1777975069 | 32.78° C | 92% | - | - | 0 m/s | - | - |
| 1777973852 | 32.78° C | 94% | - | - | 0 m/s | - | - |
| 1777972636 | 32.22° C | 94% | - | - | 0 m/s | - | - |
| 1777971420 | 32.78° C | 94% | - | - | 0 m/s | - | - |
| 1777970193 | 32.22° C | 96% | - | - | 0 m/s | - | - |
| 1777970074 | 32.22° C | 96% | - | - | 0 m/s | - | - |
| 1777968858 | 32.22° C | 95% | - | - | 0 m/s | - | - |
| 1777967638 | 31.67° C | 99% | - | - | 0 m/s | - | - |
| 1777966418 | 31.67° C | 10% | - | - | 0 m/s | - | - |
| 1777965202 | 31.11° C | 10% | - | - | 0 m/s | - | - |
| 1777963982 | 31.11° C | 10% | - | - | 0 m/s | - | - |
| 1777962766 | 30.56° C | 10% | - | - | 0 m/s | - | - |
| 1777961550 | 30.56° C | 10% | - | - | 0 m/s | - | - |
| 1777960334 | 30° C | 10% | - | - | 0 m/s | - | - |
| 1777959118 | 30° C | 10% | - | - | 0 m/s | - | - |
| 1777957902 | 30° C | 10% | - | - | 0 m/s | - | - |
| 1777956686 | 30° C | 10% | - | - | 0 m/s | - | - |
| 1777955470 | 29.44° C | 10% | - | - | 0 m/s | - | - |
* Rain since midnight (hover to see other rain measurements)
** Current wind speed in m/s (hover to see current wind gust speed)